Regional Weather Roundup
Issued by NWS

Home | Current Version | Previous Version | Text Only | Print | Product List | Glossary Off
Versions: 1 2 3 4 5 6 7 8 9 10 11 12 13 14 15 16 17 18 19 20 21 22 23 24 25 26 27 28 29 30 31 32 33 34 35 36 37 38 39 40 41 42 43 44 45 46 47 48 49 50

704
ASUS43 KMKX 230221
RWRWI

WISCONSIN REGIONAL WEATHER ROUNDUP
NATIONAL WEATHER SERVICE MILWAUKEE/SULLIVAN WI
900 PM CDT THU JUN 22 2017

NOTE: "FAIR" INDICATES FEW OR NO CLOUDS BELOW 12,000 FEET WITH NO
SIGNIFICANT WEATHER AND/OR OBSTRUCTIONS TO VISIBILITY.

WIZ001-002-006>008-014>016-023>028-230300-
NORTHWEST WISCONSIN

CITY           SKY/WX    TMP DP  RH WIND       PRES   REMARKS
SUPERIOR ARPT  NOT AVBL
ASHLAND        PTCLDY    67  55  65 SW10      29.67S
HAYWARD        CLEAR     67  56  67 SW5       29.72S
SIREN          CLEAR     66  52  62 CALM      29.73S
CUMBERLAND     CLOUDY    63  59  88 W3        29.74S
RICE LAKE      CLOUDY    65  62  87 CALM      29.74F
CHETEK         CLOUDY    63  63 100 MISG      29.73F
LADYSMITH      CLEAR     64  62  92 SW3       29.75S
EAU CLAIRE     LGT RAIN  65  64  97 CALM      29.72F
MENOMONIE      MOCLDY    66  65  96 W3        29.73S
NEW RICHMOND   CLOUDY    66  63  90 CALM      29.74F
OSCEOLA        CLOUDY    67  60  78 W3        29.76F
$$

WIZ003>005-009-010-017-018-230300-
NORTH CENTRAL WISCONSIN

CITY           SKY/WX    TMP DP  RH WIND       PRES   REMARKS
MANITOWISH WTR CLEAR     57  57 100 S3        29.72S
ARBOR VITAE    CLEAR     62  59  91 CALM      29.72S
WOODRUFF       CLEAR     62  59  91 CALM      29.72S
RHINELANDER    PTCLDY    60  60 100 W3        29.72F
EAGLE RIVER    PTCLDY    59  59  99 W3        29.71F
LAND O LAKES   CLEAR     59  57  93 CALM      29.73S
PHILLIPS       CLEAR     61  61  98 CALM      29.73S
TOMAHAWK       NOT AVBL
MEDFORD        RAIN      63  61  96 NW6       29.73R
MERRILL        CLOUDY    64  64 100 W3        29.73S
$$

WIZ029-030-035-036-043>047-230300-
CENTRAL WISCONSIN

CITY           SKY/WX    TMP DP  RH WIND       PRES   REMARKS
WAUSAU         LGT RAIN  65  64  97 NW3       29.70S
MOSINEE        CLOUDY    64  64 100 NW5       29.73S
MARSHFIELD     CLOUDY    66  63  90 NW6       29.71S
STEVENS POINT  CLOUDY    65  65 100 CALM      29.72S
WAUPACA        CLOUDY    68  67  98 CALM      29.72R
WAUTOMA        CLOUDY    65  65 100 NW5       29.71S
WISC RAPIDS    CLOUDY    67  66  97 W3        29.73S
CAMP DOUGLAS   CLOUDY    66  66 100 CALM      29.71F
$$

WIZ011>013-019>022-031-037>040-048>050-230300-
NORTHEAST WISCONSIN

CITY           SKY/WX    TMP DP  RH WIND       PRES   REMARKS
ANTIGO         CLOUDY    64  64 100 CALM      29.72F
SHAWANO        CLOUDY    68  66  92 CALM      29.70F
OCONTO         CLOUDY    67  66  97 CALM      29.69S
STURGEON BAY   LGT RAIN  68  67  96 NW3         N/A
GREEN BAY      CLOUDY    68  67  96 SW6       29.69S
MANITOWOC      TSTM      64  63  94 CALM      29.69F FOG
APPLETON       TSTM      64  64 100 W8        29.69S
CLINTONVILLE   CLOUDY    66  64  94 CALM      29.69F
OSHKOSH        LGT RAIN  67  66  97 S5        29.70S
$$

WIZ032>034-041-042-053>061-230300-
SOUTHWEST WISCONSIN

CITY           SKY/WX    TMP DP  RH WIND       PRES   REMARKS
LA CROSSE      CLOUDY    70  69  97 N3        29.70S
SPARTA         CLOUDY    65  65 100 CALM      29.72S
VIROQUA        CLOUDY    67  67 100 CALM      29.71S
BOSCOBEL       CLOUDY    71  69  93 E3        29.67F
PRAIRIE DU CHI HVY RAIN  72  69  89 E6        29.67F
PLATTEVILLE    MOCLDY    76  74  94 N5        29.70R
$$

WIZ056-057-062-063-064-067-068-230300-
SOUTH CENTRAL WISCONSIN

CITY           SKY/WX    TMP DP  RH WIND       PRES   REMARKS
REEDSBURG      CLOUDY    66  66 100 CALM      29.70S
BARABOO/DELLS  CLOUDY    66  64  91 SE3       29.71S
LONE ROCK      PTCLDY    70  67  90 CALM      29.69S
MINERAL POINT  CLOUDY    73  73 100 NE6       29.70S
MADISON        CLOUDY    72  66  81 NE8       29.72R
MIDDLETON      CLOUDY    72  67  83 NE6       29.72R
WATERTOWN      CLOUDY    68  68 100 E6        29.69F
MONROE         CLOUDY    73  70  88 E6        29.69S
JANESVILLE     MOCLDY    81  68  65 S5        29.69R HX  83
$$

WIZ051-052-058>065-066-070>072-230300-
SOUTHEAST WISCONSIN

CITY           SKY/WX    TMP DP  RH WIND       PRES   REMARKS
MILWAUKEE      TSTM      71  66  84 NW3       29.71R
WAUKESHA       PTCLDY    72  66  83 E3        29.73R
MILWAUKEE/TIMM PTCLDY    68  64  88 NE3       29.72F
RACINE         CLOUDY    68  65  90 CALM      29.72S
KENOSHA        MOCLDY    81  69  67 SW8       29.70R HX  84
FOND DU LAC    CLOUDY    70  63  78 NW9       29.73R
SHEBOYGAN      LGT RAIN  69  67  93 SE6       29.70S
WEST BEND      LGT RAIN  68  66  94 E5        29.71S
JUNEAU         CLOUDY    70  66  87 CALM      29.73R
$$

LSZ147-162-230300-
LAKE SUPERIOR

STATION/POSITION TIME  TEMP    WIND        PRES    WAVE
                       AIR SEA DIR/SP/G            HT/PER
                 (UTC) (F)     (DEG/KT/KT) (MB)    (FT/S)
W MID LAKE BUOY  0150   49 39  220/ 12/ 12 1003.5F   1
DEVILS ISLAND    0200   62     290/ 12/ 18 1003.8R
SAXON HARBOR     0140   69     200/  5/  6 1004.7R
$$

LMZ867-665-643>646-230300-
LAKE MICHIGAN

STATION/POSITION TIME  TEMP    WIND        PRES    WAVE
                       AIR SEA DIR/SP/G            HT/PER
                 (UTC) (F)     (DEG/KT/KT) (MB)    (FT/S)
CHAMBERS ISLAND  0140   65      CALM  /  2 1005.4F
N MID LAKE BUOY  0150   59 54  210/  8/  8 1005.9F   2/ 5
NORTHPORT PIER   0140   66      CALM  /  3 1005.4F
KEWAUNEE LAKESHO 0154   64      CALM  /  1 1005.2R
SHEBOYGAN LAKESH 0200   60     170/  7/  8 1005.4S
PORT WASHINGTON  0130   64     210/  2/  6 1007.1S
ATWATER BUOY     0109   69 58   40/  8/ 10 1006.2
MILWAUKEE LAKESH 0200   65      20/  6/  7   N/A
S MID LAKE BUOY  0150   68 61  190/ 14/ 16 1005.3F   1/ 4
KENOSHA   LAKESH 0200   75     260/  3/ 13 1005.4
$$

TC  - TEMPERATURE IN CELSIUS
VSB - VISIBILITY IN STATUTE MILES
WCI - WIND CHILL INDEX
HX  - HEAT INDEX





USA.gov is the U.S. government's official web portal to all federal, state and local government web resources and services.